Tracking 18840 objects as of 19-November-2017
HD Live streaming from Space Station
objects crossing your sky now

FENGYUN 1C DEB

Track FENGYUN 1C DEB now!
10-day predictions


NORAD ID: 31562
Int'l Code: 1999-025BZD
Perigee: 749.8 km
Apogee: 846.2 km
Inclination: 99.2 °
Period: 100.7 minutes
Semi major axis: 7168 km
RCS: 0.0141 m2 (small)
Launch date: May 10, 1999
Source: People's Republic of China (PRC)
Launch site: Taiyaun Space Center, China (TSC)

Note: This is SATELLITE DEBRIS
aabbcc
Your satellite tracking list
Your tracking list is empty




NASA's NSSDC Master Catalog

Two Line Element Set (TLE):
1 31562U 99025BZD 17321.53039491  .00000456  00000-0  19021-3 0  9991
2 31562  99.2178 231.6487 0067205 176.1282 184.0432 14.30260985550519
Source of the keplerian elements: AFSPC